Wind_Speed
16 15 13 12 11 11 10 10 10 10 9 10 10 9 8 10 12 6 5 5 5 8 10 9 6 6 2 2 1 2 2 3 3 5 3 7 6 5 6 9 2 3 6 12 21
16 17 18 18 16 14 12 11 11 10 10 10 9 8 8 11 10 8 6 8 12 11 8 7 4 6 2 2 1 3 3 1 3 3 2 4 7 4 6 5 6 10 16 21 22
15 16 17 18 18 16 16 14 13 12 10 9 9 8 9 9 2 4 3 12 12 12 6 4 10 3 2 1 1 2 3 3 8 5 5 2 5 3 14 4 6 18 16 17 18
14 15 16 17 18 17 17 15 15 12 10 9 8 7 7 3 5 1 5 13 13 9 6 6 3 3 2 1 3 2 3 5 3 6 4 3 6 5 9 3 13 15 20 18 14
13 14 16 16 17 18 17 16 14 11 8 8 7 7 3 2 6 7 4 19 12 13 6 4 4 3 1 2 4 2 2 6 6 7 3 6 4 3 6 12 16 15 16 15 14
14 15 15 16 17 17 17 16 14 10 7 8 5 4 2 1 7 3 5 18 10 7 3 4 4 3 1 2 0 4 7 7 6 3 4 5 3 6 7 15 15 17 14 13 15
15 15 17 17 18 18 17 16 13 8 6 5 3 3 2 5 4 5 7 7 6 6 3 2 4 4 1 1 2 8 5 5 2 1 2 5 6 7 16 18 16 15 12 11 13
16 17 17 19 19 19 17 17 12 6 3 3 2 2 4 1 4 6 7 2 5 5 4 4 4 2 2 5 4 3 3 1 6 3 4 4 5 5 19 20 17 15 13 12 13
18 18 19 20 21 20 19 15 6 1 1 2 2 2 4 4 5 5 10 4 9 5 6 3 5 2 3 3 3 5 2 4 3 5 4 2 3 7 17 19 16 15 15 13 10
20 20 22 22 21 20 16 6 7 4 3 1 1 2 2 3 1 2 10 7 3 4 2 3 4 3 3 4 2 3 3 3 3 4 1 5 5 8 11 15 17 13 13 12 12
20 22 22 20 18 15 10 1 4 2 1 3 4 4 5 8 3 3 7 5 1 6 3 2 4 4 7 6 3 6 6 4 3 2 5 3 4 8 3 6 10 7 10 12 15
21 23 21 15 13 9 6 4 4 3 6 3 3 6 9 5 3 3 11 4 2 2 2 5 1 7 4 6 8 4 7 4 2 11 5 3 6 3 3 1 3 7 8 13 10
24 23 17 12 6 4 4 3 2 9 1 6 4 4 3 7 3 4 7 4 3 2 3 4 1 4 4 4 7 4 2 3 1 6 2 5 4 5 4 3 2 4 6 10 15
26 19 13 9 3 5 1 9 17 7 5 6 3 3 3 2 1 3 6 3 3 4 5 2 2 5 5 4 2 6 3 7 8 3 2 2 2 8 10 7 5 7 7 12 14
22 14 10 5 3 0 3 18 5 3 5 6 4 0 1 4 1 1 2 4 4 3 5 6 3 4 4 6 4 2 8 7 3 3 3 4 2 3 12 14 13 9 8 8 13
18 10 6 3 5 3 12 10 3 5 2 6 2 2 2 3 3 2 3 5 1 3 1 7 1 6 9 3 7 11 6 4 3 2 2 4 4 4 7 21 18 9 9 10 11
16 9 5 4 2 8 13 3 5 5 4 7 3 4 3 3 2 2 4 2 2 2 2 4 2 2 5 9 3 3 6 2 3 3 3 5 3 9 7 14 25 20 12 12 13
17 9 7 10 9 9 5 5 6 3 4 4 3 3 4 5 5 2 3 1 2 2 1 2 3 7 4 5 7 5 6 5 4 2 4 4 6 5 7 9 20 20 16 16 15
17 5 4 4 2 1 5 5 5 3 4 4 3 6 6 5 1 4 3 1 4 6 5 2 4 1 6 4 6 5 3 3 5 3 2 4 6 5 3 6 7 15 13 18 19
9 6 4 2 4 4 5 3 3 5 3 2 3 1 3 5 3 4 2 2 3 2 5 2 2 3 3 5 1 5 5 2 2 5 4 5 2 4 10 8 7 10 13 15 14
4 3 7 4 3 5 3 4 5 5 2 3 2 3 1 2 3 2 2 2 2 3 2 1 2 4 3 3 6 2 1 3 2 3 4 2 2 6 12 8 6 4 5 8 13
4 2 4 2 3 1 1 4 4 3 4 4 4 2 3 4 5 4 3 3 7 2 1 1 3 1 3 4 2 5 4 5 4 3 1 2 3 8 10 8 4 3 4 7 12
2 2 3 1 1 2 4 4 4 1 3 3 3 3 4 3 3 3 4 6 8 4 3 2 2 2 7 6 4 4 2 3 3 3 4 4 4 9 9 10 10 5 5 7 8
2 2 3 4 1 3 3 4 2 2 3 5 3 4 4 5 4 2 5 3 7 4 8 6 3 3 6 6 3 4 5 1 3 3 4 4 3 8 10 12 11 9 7 2 9
3 1 2 1 2 2 1 2 2 3 2 4 3 2 4 2 2 3 2 6 4 11 4 4 2 0 3 3 3 1 5 4 3 2 2 7 7 0 4 7 9 9 10 7 6
2 2 4 1 2 2 1 1 5 2 5 1 6 2 2 4 7 6 2 1 2 5 4 4 1 2 2 5 6 3 6 4 4 5 7 10 5 4 6 6 8 9 11 13 11
4 1 2 2 2 2 2 3 3 1 3 6 8 5 3 4 4 1 5 6 3 1 2 3 2 2 3 4 5 3 2 4 3 3 2 5 3 5 4 5 5 6 7 8 8
Wind_Direction
24 20 14 4 355 351 349 344 338 335 329 323 328 333 332 319 319 298 248 220 189 154 144 144 142 133 97 78 86 130 71 127 100 131 126 131 133 191 102 121 70 89 125 131 151
25 23 22 20 13 8 3 357 353 350 344 337 332 339 332 327 324 264 247 193 161 155 151 149 127 122 50 41 18 64 61 96 43 44 35 116 150 124 124 115 82 93 94 125 142
18 18 18 18 15 12 7 359 355 353 354 351 345 343 330 334 310 249 359 182 170 168 111 124 137 102 62 80 170 139 165 151 44 68 23 26 116 60 144 123 189 146 141 144 148
8 9 10 10 10 10 5 358 352 347 349 352 348 340 335 342 132 6 352 182 180 172 140 134 83 80 105 231 182 84 44 114 96 39 25 29 347 137 223 170 144 146 152 147 160
359 358 359 1 2 3 359 356 350 346 345 350 345 344 8 329 257 337 349 166 154 154 155 132 114 118 100 238 122 108 125 84 97 33 346 314 273 220 193 127 133 143 153 157 163
351 349 352 351 353 354 350 348 345 344 346 349 344 3 14 18 330 2 137 160 155 145 136 142 143 205 0 281 55 91 108 91 40 41 316 332 217 162 136 137 140 151 162 167 173
348 347 344 344 343 342 340 337 333 328 339 347 356 29 63 227 63 105 138 166 170 178 138 180 112 59 333 59 78 146 94 92 164 120 288 315 236 219 148 148 156 162 165 171 179
349 346 342 339 335 332 335 330 320 296 338 357 28 20 246 225 266 245 178 118 195 192 184 162 158 79 86 129 60 86 71 132 33 65 356 32 273 225 159 154 166 167 170 177 190
351 346 340 334 328 325 336 337 345 191 74 60 35 50 299 276 264 260 207 107 119 165 195 116 128 104 100 90 35 18 101 102 115 66 290 204 290 173 169 163 170 177 173 180 184
348 344 340 331 322 323 342 32 68 95 99 39 296 20 301 297 243 154 172 145 128 132 96 105 61 80 48 82 207 143 140 92 69 48 319 314 264 176 175 175 173 178 177 169 186
345 342 338 332 321 335 345 74 17 346 114 227 258 250 283 319 167 130 150 141 20 63 117 58 88 168 204 185 170 140 142 127 150 173 10 343 320 162 116 130 178 174 178 174 194
342 339 339 336 333 344 33 76 106 93 313 233 244 280 271 265 10 97 151 117 114 125 98 33 144 226 167 173 147 118 129 163 143 149 186 198 258 239 23 75 157 162 182 186 183
339 340 346 344 344 46 27 78 87 325 143 300 200 206 232 152 190 200 141 147 116 93 95 133 257 171 158 138 151 149 163 166 171 126 139 145 290 255 229 276 197 195 178 191 178
340 343 350 353 75 355 23 350 318 162 56 302 336 283 154 180 342 168 168 128 44 156 159 239 276 139 137 194 169 147 155 123 131 101 149 71 261 213 218 236 210 213 185 192 195
344 346 347 338 323 298 338 342 115 103 57 303 292 123 36 133 251 105 165 56 129 127 85 258 215 148 172 203 141 116 125 124 140 102 145 185 239 236 179 223 227 214 200 193 195
342 345 347 348 297 279 337 356 121 43 32 331 307 344 25 18 322 77 95 65 106 131 314 242 244 162 198 148 142 135 88 61 33 128 22 175 174 242 190 208 220 206 196 189 191
341 340 316 273 254 316 333 72 40 91 326 320 331 9 60 321 32 83 121 144 149 68 322 325 296 4 109 75 51 99 91 38 21 9 256 138 175 256 231 218 190 198 188 188 186
336 320 294 273 277 315 348 57 74 258 243 305 4 37 68 1 13 58 75 351 197 131 162 221 316 165 165 157 173 161 148 163 154 172 282 127 228 253 248 193 179 191 195 183 184
335 326 311 344 24 163 67 57 194 220 291 344 28 55 342 354 34 64 29 171 239 171 180 169 286 124 152 126 134 211 190 201 105 102 325 234 275 348 310 156 188 206 190 185 184
342 334 19 30 110 49 72 220 236 213 312 70 86 37 3 321 55 55 6 252 294 185 158 219 333 40 102 114 240 161 157 95 350 126 236 280 299 289 337 284 200 192 203 198 194
5 47 348 150 23 47 116 236 266 258 200 76 111 51 337 341 37 43 331 313 337 52 107 95 92 297 118 161 195 64 163 64 135 150 175 290 279 337 310 296 191 199 212 197 173
14 70 86 13 43 47 167 209 248 288 47 63 91 77 59 24 33 20 9 274 341 173 71 28 135 212 219 307 257 174 179 148 134 243 210 174 279 347 336 342 38 127 146 181 168
43 265 244 104 97 309 291 273 233 223 31 74 41 40 40 74 72 13 336 298 332 63 74 140 15 38 351 355 360 36 319 99 109 80 195 148 289 358 357 9 8 22 101 117 134
63 22 329 50 48 125 332 286 207 37 73 83 104 88 77 29 24 342 348 306 333 37 80 92 105 153 184 196 163 326 329 148 147 123 177 179 135 18 0 7 358 8 355 90 148
29 271 210 285 331 355 258 269 214 145 70 36 52 64 150 136 25 347 330 326 337 352 60 84 102 40 248 227 177 57 346 343 104 291 240 164 139 327 329 345 359 356 8 30 31
63 27 347 268 319 335 358 213 197 167 139 179 134 164 148 172 188 203 177 179 257 334 44 343 118 358 330 242 115 66 5 337 56 108 116 131 124 259 70 41 19 13 6 13 17
-0 11 115 285 350 80 257 286 257 90 26 166 152 129 186 215 184 24 98 76 67 333 18 60 103 70 265 345 102 267 254 98 16 352 162 209 158 144 91 80 46 44 39 29 13
Height
797 795 793 791 789 787 785 782 780 779 778 776 775 774 773 771 770 769 768 762 762 763 766 767 769 771 772 774 775 777 795 804 798 799 798 788 793 791 789 797 797 799 805 811 817
798 796 793 791 789 786 784 782 780 778 777 775 774 773 772 770 768 766 760 760 762 764 766 768 771 772 777 777 777 784 798 797 792 794 796 790 792 793 796 801 809 806 809 815 819
798 796 794 792 789 787 785 782 780 778 776 775 773 772 771 769 770 759 758 759 762 764 767 768 769 772 780 778 780 785 798 792 795 794 793 794 792 788 798 809 805 808 811 816 820
799 796 794 792 790 788 785 782 780 778 776 775 773 772 770 770 778 758 758 760 763 766 768 769 771 778 785 788 779 794 789 789 795 795 795 796 792 795 796 798 797 803 808 814 820
799 796 794 792 790 787 785 782 780 777 776 774 773 772 771 771 765 757 756 759 763 766 768 770 775 778 787 783 780 787 792 790 794 795 797 796 797 795 798 796 799 806 812 816 820
798 796 793 791 789 786 784 781 779 777 775 774 773 772 773 773 760 758 758 761 764 768 770 771 774 776 781 783 786 786 791 797 798 800 799 804 795 793 798 798 803 807 814 817 819
797 795 792 790 787 785 782 780 777 776 774 774 773 773 774 767 760 760 762 764 767 769 771 772 775 777 779 786 782 789 799 800 801 803 804 803 802 799 796 798 806 809 813 818 820
797 794 791 788 786 782 780 777 774 774 774 773 773 773 773 761 761 762 763 765 767 769 771 772 774 777 780 781 789 796 801 812 808 803 804 804 818 800 792 798 808 810 814 818 819
796 793 790 787 783 779 777 775 772 772 773 773 774 774 768 761 760 759 763 765 767 770 771 773 774 782 783 797 810 805 820 815 815 809 811 809 813 796 792 794 807 810 812 817 821
794 791 788 784 780 777 776 774 772 773 774 774 775 777 762 762 758 759 762 765 766 770 773 775 786 797 803 809 829 815 820 816 814 814 811 812 811 800 796 798 803 809 811 817 820
793 789 785 781 778 776 775 774 777 778 774 771 771 769 763 759 758 760 762 765 767 773 787 783 801 808 798 796 791 801 804 813 810 808 809 814 815 805 802 802 807 812 813 817 817
791 786 782 779 777 776 775 776 779 782 784 767 768 767 761 760 762 761 762 770 773 788 781 797 807 792 784 789 791 800 805 812 809 806 815 817 819 809 808 807 806 810 813 813 816
789 784 780 777 777 777 777 778 778 778 787 771 764 764 759 759 763 763 761 767 776 786 789 799 791 783 784 792 798 800 804 812 813 812 814 818 821 817 808 809 807 807 808 809 812
786 781 779 778 780 778 778 777 775 775 801 781 767 759 758 756 765 756 758 765 775 787 790 790 782 785 792 795 792 804 796 800 813 816 828 816 833 818 812 811 809 809 808 806 809
784 780 778 779 779 778 779 775 773 775 830 773 766 755 757 765 762 762 758 762 780 782 788 796 785 791 797 791 794 805 796 805 810 820 824 829 833 812 806 812 806 806 804 803 803
782 779 778 778 778 776 775 773 775 807 816 785 766 767 768 766 765 762 763 761 767 779 784 787 774 780 784 780 783 791 805 809 815 823 834 820 821 811 810 796 794 796 798 798 800
780 777 777 777 776 775 773 773 808 823 786 788 781 773 776 777 771 770 776 782 795 802 801 789 783 778 777 795 792 796 817 842 842 838 831 813 825 802 781 773 770 782 789 792 794
778 776 774 774 775 775 774 790 816 793 794 778 782 778 786 780 778 775 784 794 783 788 807 809 806 786 776 788 798 806 812 833 844 839 830 815 823 793 764 760 761 768 775 783 787
776 774 773 774 773 774 783 814 808 794 782 784 782 795 794 785 782 784 787 793 786 785 804 809 797 770 773 776 785 804 813 798 822 817 832 815 794 774 765 768 771 770 772 775 777
775 774 773 773 773 774 794 809 798 787 776 780 795 792 799 796 792 791 792 778 781 776 780 789 801 779 774 771 781 790 792 815 819 833 841 812 803 803 789 782 774 774 770 771 775
776 780 777 776 776 785 806 803 790 776 773 781 789 794 793 797 794 798 793 779 775 776 777 785 797 791 782 790 795 799 799 805 807 811 819 828 815 797 794 781 777 774 772 771 773
781 792 779 779 793 811 805 794 781 775 772 777 782 788 792 799 800 797 795 785 773 773 784 785 807 809 792 782 782 788 789 801 815 812 820 820 814 792 788 781 775 772 765 767 770
794 793 780 780 803 805 798 789 781 777 780 780 787 786 792 799 802 797 794 777 774 774 783 784 808 823 814 800 788 791 787 797 812 815 818 818 817 790 789 785 781 776 768 768 770
794 797 788 786 795 793 794 789 784 774 780 783 786 787 794 804 800 799 797 782 780 776 777 782 807 812 829 812 801 800 793 793 805 816 812 814 807 798 796 792 788 782 777 771 771
797 799 798 800 797 796 796 788 784 785 780 782 788 788 793 802 802 800 794 793 781 783 782 789 807 799 795 798 791 793 800 797 800 802 804 808 801 804 801 798 793 786 782 780 780
801 803 799 798 798 793 796 784 785 781 782 787 792 790 792 800 799 803 795 796 795 789 792 797 806 803 797 791 786 799 801 798 796 800 801 800 808 801 798 797 795 791 790 788 785
801 800 801 799 797 795 794 787 781 779 777 778 785 792 793 788 786 789 793 802 799 798 802 805 807 811 814 807 791 806 803 801 802 804 803 812 804 798 803 804 803 803 802 800 798